{"data":{"norad_id":65436,"intl_designator":"2025-194C","name":"STARLINK-35043","alt_names":[],"object_type":"PAYLOAD","status":"ACTIVE","operator":null,"country":"US","launch_date":"2025-09-03","launch_site_code":"AFWTR","launch_vehicle":null,"mission":null,"orbit_class":"UNKNOWN","rcs_meters":null,"size_class":null,"mass_kg":null,"dimensions":null,"purposes":["comms"],"wikipedia_slug":null,"has_3d_model":false,"image_url":null,"decayed_at":null,"tle_current":{"epoch":"2026-05-25T02:29:52.412640Z","epoch_age_seconds":76614,"freshness":"FRESH","line1":"1 65436U 25194C   26145.10407885  .00002088  00000+0  15200-3 0  9994","line2":"2 65436  97.5159 359.9476 0002390  86.1150 274.0350 15.04838965 41173","mean_motion":15.04838965,"eccentricity":0.000239,"inclination_deg":97.5159,"raan_deg":359.9476,"arg_perigee_deg":86.115,"mean_anomaly_deg":274.035,"bstar":0.000152,"rev_number":4117,"period_min":95.691302092247,"perigee_km":550.34373799707,"apogee_km":553.65634350254,"semimajor_km":6930.1370407498,"source":"CELESTRAK","updated_at":"2026-05-25T13:38:20.805997Z"}}}